Flag for U.S.A. Weather past 2 weeks in Howland Island, U.S.A.

Now
84 °F

Scattered clouds.


Feels Like: 94 °F
Forecast: 80 / 86 °F
Wind: 3 mph from North

Location: Funafuti

Current Time: Mar 4, 2015 at 7:53:52 AM

Latest Report: Mar 4, 2015 at 7:00 AM


Visibility: N/A

Pressure: 29.74 "Hg

Humidity: 79%

Dew point: 77 °F

Location of Howland IslandLocation

Historic Weather in Howland Island — Graph

°F

Howland Island temperature yesterday

Maximum temperature yesterday: 90 °F (at 2:00 PM)
Minimum temperature yesterday: 81 °F (at 6:00 AM)
Average temperature yesterday: 85 °F

Past Weeks' High & Low Weather Summary

 TemperatureHumidityPressure
High91 °F (Feb 23, 3:00 PM)100% (Mar 2, 2:00 AM)29.83 "Hg (Mar 2, 2:00 AM)
Low75 °F (Mar 2, 2:00 AM)63% (Feb 18, 11:00 AM)29.62 "Hg (Feb 28, 4:00 PM)
Average84 °F78%29.75 "Hg
* Reported Feb 17 6:00 AM — Mar 4 6:00 AM, Howland Island, Weather by CustomWeather, © 2015

Note: Actual official high and low records may vary slightly from our data, if they occured in-between our weather recording intervals... More about our weather records

Advertising

Howland Island weather history for previous 24 hours

 ConditionsComfort  
Time TempWeatherWind HumidityBarometerVisibility
6:00 AM
Wed, Mar 4
82 °FPassing clouds.No wind84%29.71 "HgN/A
5:00 AM84 °FPassing clouds.No wind79%29.74 "HgN/A
3:00 AM84 °FPassing clouds.No wind79%29.71 "HgN/A
1:00 AM84 °FScattered showers. Partly cloudy.No wind79%29.74 "HgN/A
12:00 AM84 °FScattered showers. Passing clouds.13 mph79%29.71 "HgN/A
11:00 PM
Tue, Mar 3
84 °FPassing clouds.3 mph79%29.71 "HgN/A
10:00 PM84 °FPassing clouds.3 mph79%29.71 "HgN/A
9:00 PM84 °FPassing clouds.3 mph79%29.71 "HgN/A
7:00 PM84 °FPassing clouds.2 mph79%29.68 "HgN/A
6:00 PM86 °FScattered clouds.2 mph75%29.62 "HgN/A
5:00 PM88 °FScattered clouds.3 mph70%29.62 "HgN/A
4:00 PM90 °FScattered clouds.5 mph67%29.62 "HgN/A
3:00 PM90 °FScattered clouds.5 mph63%29.62 "HgN/A
2:00 PM90 °FScattered clouds.2 mph63%29.62 "HgN/A
1:00 PM88 °FScattered clouds.2 mph70%29.65 "HgN/A
12:00 PM88 °FPassing clouds.6 mph70%29.68 "HgN/A
11:00 AM86 °FScattered clouds.5 mph75%29.71 "HgN/A
10:00 AM86 °FPassing clouds.2 mph75%29.71 "HgN/A
9:00 AM86 °FPassing clouds.1 mph75%29.71 "HgN/A
8:00 AM86 °FScattered clouds.2 mph75%29.71 "HgN/A
7:00 AM82 °FScattered clouds.3 mph84%29.71 "HgN/A
Weather by CustomWeather, © 2015

See weather overviewHow to use our weather pages